Cheyenne, WY

11:23 AM MST on December 12, 2017 (GMT -0700)
Cheyenne

Weather History for KCYS - October, 2013

Change the Weather History Date:

Monday, October 7, 2013

  Actual Average Record
Temperature  
Mean Temperature 54 °F 49 °F  
Max Temperature 71 °F 62 °F 82 °F (1956)
Min Temperature 36 °F 36 °F 18 °F (1970)
Degree Days  
Heating Degree Days 11 16  
Month to date heating degree days 124 104  
Since 1 July heating degree days 306 385  
Cooling Degree Days 0 0  
Month to date cooling degree days 0 0  
Year to date cooling degree days 520 348  
Growing Degree Days 6 (Base 50)    
Moisture  
Dew Point 30 °F    
Average Humidity 48    
Maximum Humidity 76    
Minimum Humidity 20    
Precipitation  
Precipitation 0.00 in 0.03 in 0.83 in (1990)
Month to date precipitation 0.82 0.25  
Year to date precipitation 16.20 14.18  
Snow  
Snow 0.00 in 0.10 in 7.90 in (1990)
Month to date snowfall 4.7 0.9  
Since 1 July snowfall 4.7 2.2  
Snow Depth 0.00 in    
Sea Level Pressure  
Sea Level Pressure 29.96 in    
Wind  
Wind Speed 9 mph (SW)    
Max Wind Speed 18 mph    
Max Gust Speed 22 mph    
Visibility 10 miles    
Events      
T = Trace of Precipitation, MM = Missing Value Source: NWS Daily Summary

Daily Weather History Graph

Daily Weather History Graph

Search for Another Location

Airport or City:

Trip Planner

Search our weather history database for the weather conditions in past years. The results will help you decide how hot, cold, wet, or windy it might be!

Date:

Astronomy

Oct. 07, 2013 Rise Set
Actual Time 7:02 AM MDT 6:30 PM MDT
Civil Twilight 6:34 AM MDT 6:58 PM MDT
Nautical Twilight 6:03 AM MDT 7:30 PM MDT
Astronomical Twilight 5:30 AM MDT 8:02 PM MDT
Moon 9:56 AM MDT (10/7) 8:15 PM MDT (10/7)
Length of Visible Light 12h 23m
Length of Day
11h 28m
Waxing Crescent, 9% of the Moon is Illuminated
Oct 7
Waxing Crescent
Oct 11
First Quarter
Oct 18
Full
Oct 26
Last Quarter
Nov 3
New

Hourly Weather History & Observations

Time (MDT) Temp. Windchill Dew Point Humidity Pressure Visibility Wind Dir Wind Speed Gust Speed Precip Events Conditions
12:53 AM 45.0 °F 40.1 °F 33.1 °F 63% 30.09 in 10.0 mi WSW 9.2 mph - N/A   Clear
1:53 AM 39.9 °F 37.8 °F 32.0 °F 73% 30.11 in 10.0 mi West 3.5 mph - N/A   Clear
2:53 AM 39.9 °F 36.7 °F 30.0 °F 68% 30.08 in 10.0 mi West 4.6 mph - N/A   Clear
3:53 AM 37.0 °F 31.6 °F 28.0 °F 70% 30.07 in 10.0 mi SSW 6.9 mph - N/A   Clear
4:53 AM 37.0 °F 33.3 °F 27.0 °F 67% 30.07 in 10.0 mi WSW 4.6 mph - N/A   Clear
5:53 AM 44.1 °F 38.1 °F 25.0 °F 47% 30.04 in 10.0 mi West 11.5 mph - N/A   Clear
6:53 AM 45.0 °F - 24.1 °F 44% 30.06 in 10.0 mi Calm Calm - N/A   Clear
7:53 AM 48.0 °F - 26.1 °F 42% 30.06 in 10.0 mi WSW 11.5 mph - N/A   Clear
8:53 AM 55.9 °F - 27.0 °F 33% 30.04 in 10.0 mi SW 9.2 mph - N/A   Clear
9:53 AM 64.0 °F - 26.1 °F 24% 30.01 in 10.0 mi West 12.7 mph - N/A   Clear
10:53 AM 66.0 °F - 24.1 °F 20% 30.01 in 10.0 mi SSW 13.8 mph - N/A   Clear
11:53 AM 69.1 °F - 26.1 °F 20% 29.96 in 10.0 mi SSW 11.5 mph - N/A   Clear
12:53 PM 69.1 °F - 28.0 °F 22% 29.94 in 10.0 mi South 12.7 mph - N/A   Clear
1:53 PM 70.0 °F - 28.0 °F 21% 29.93 in 10.0 mi SSW 13.8 mph - N/A   Clear
2:53 PM 70.0 °F - 28.0 °F 21% 29.91 in 10.0 mi South 10.4 mph - N/A   Clear
3:53 PM 71.1 °F - 28.9 °F 21% 29.90 in 10.0 mi South 11.5 mph - N/A   Clear
4:53 PM 68.0 °F - 28.9 °F 23% 29.89 in 10.0 mi SSW 15.0 mph - N/A   Clear
5:53 PM 63.0 °F - 33.1 °F 33% 29.88 in 10.0 mi SSW 11.5 mph - N/A   Clear
6:53 PM 57.0 °F - 35.1 °F 44% 29.91 in 10.0 mi SW 10.4 mph - N/A   Clear
7:53 PM 53.1 °F - 36.0 °F 52% 29.90 in 10.0 mi WSW 3.5 mph - N/A   Clear
8:53 PM 50.0 °F - 37.0 °F 61% 29.89 in 10.0 mi WSW 6.9 mph - N/A   Clear
9:53 PM 50.0 °F - 34.0 °F 54% 29.84 in 10.0 mi West 6.9 mph - N/A   Clear
10:53 PM 48.9 °F - 34.0 °F 56% 29.82 in 10.0 mi WNW 6.9 mph - N/A   Clear
11:53 PM 48.9 °F - 33.1 °F 54% 29.79 in 10.0 mi WNW 10.4 mph - N/A   Clear